Weather WX

World > North America > United States > Iowa

Des Moines, Iowa Regional Weather

Lat: 41.58N, Lon: 93.62W
Wx Zone: IAZ060
Warning FLW WEATHER ALERT - (More Info. Click Here) Warning
Feedback

Des Moines, IA Regional Weather

Expires:201907190900;;290851
ASUS43 KEAX 190810
RWREAX

WEATHER ROUNDUP FOR EASTERN KANSAS AND NORTHWEST MISSOURI
NATIONAL WEATHER SERVICE KANSAS CITY/PLEASANT HILL MO
300 AM CDT FRI JUL 19 2019


IAZ060-094-KSZ022-034>040-054-083-096-NEZ052-066-093-190900- 
...KANSAS...SOUTHEAST NEBRASKA AND IOWA...
  
CITY           SKY/WX    TMP DP  RH WIND       PRES   REMARKS
TOPEKA         CLEAR     83  72  69 S10G23    29.80F                  
MANHATTAN      CLEAR     84  70  62 SW14G23   29.78S                  
EMPORIA        CLEAR     79  71  76 S17G30    29.84S                  
CHANUTE        CLEAR     82  71  69 S15G28    29.87F                  
WICHITA        CLEAR     82  67  60 S17       29.83F                  
OMAHA          CLEAR     84  73  69 S10       29.71S HX  90           
LINCOLN        CLEAR     84  69  60 S14       29.72S                  
FALLS CITY     CLEAR     84  72  67 S15G25    29.76S                  
DES MOINES     CLEAR     83  73  72 SW16      29.71S                  

$$

  

SKY/WX - Weather  TMP - Temperature  DP - Dew Point  RH - Relative Humidity
WIND - Wind Direction/Speed PRES - Barometric Pressure VSB - Visibility
WCI - Wind Chill Index E13G22 Wind - East Wind 13 mph/Gusts of 22 mph